FW2111 Weather Reports


Display with metric or nautical units.
time (UTC)temp
F
wind
direction
speed
MPH
gust
MPH
rain 1hr
in
rain 24hr
in
rain mn
in
humidity
%
barometer
mb
20260506093711 33 284 2.0 7.0 0.00 0.00 0.00 51 1014.5
20260506093213 33 278 3.0 7.0 0.00 0.00 0.00 51 1014.4
20260506092701 33 302 2.0 7.0 0.00 0.00 0.00 51 1014.4
20260506092204 33 275 2.0 7.0 0.00 0.00 0.00 50 1014.3
20260506091636 33 260 2.0 8.0 0.00 0.00 0.00 50 1014.3
20260506091405 33 288 2.0 8.0 0.00 0.00 0.00 50 1014.3
20260506090621 33 301 2.0 5.0 0.00 0.00 0.00 50 1014.4
20260506090124 33 266 2.0 4.0 0.00 0.00 0.00 49 1014.3
20260506085557 33 262 2.0 8.0 0.00 0.00 0.00 48 1014.3
20260506085054 33 248 3.0 7.0 0.00 0.00 0.00 48 1014.3
20260506084529 33 273 3.0 9.0 0.00 0.00 0.00 47 1014.2
20260506084233 33 292 3.0 6.0 0.00 0.00 0.00 47 1014.3
20260506083435 34 268 3.0 8.0 0.00 0.00 0.00 47 1014.2
20260506083143 34 296 3.0 8.0 0.00 0.00 0.00 47 1014.3
20260506082406 34 278 2.0 8.0 0.00 0.00 0.00 46 1014.2
20260506081906 34 284 2.0 7.0 0.00 0.00 0.00 46 1014.0
20260506081336 34 261 3.0 13.0 0.00 0.00 0.00 45 1014.1
20260506080835 34 261 4.0 13.0 0.00 0.00 0.00 45 1014.2
20260506080540 35 263 4.0 12.0 0.00 0.00 0.00 45 1014.1
20260506073116 37 255 3.0 8.0 0.00 0.00 0.00 46 1013.9
20260506072550 37 285 4.0 13.0 0.00 0.00 0.00 46 1013.9
20260506072052 37 284 4.0 12.0 0.00 0.00 0.00 45 1013.8
20260506071526 37 34 2.0 7.0 0.00 0.00 0.00 45 1013.9
20260506071233 37 287 2.0 9.0 0.00 0.00 0.00 44 1013.8
20260506070504 37 289 3.0 9.0 0.00 0.00 0.00 44 1013.7
20260506061824 37 261 4.0 9.0 0.00 0.00 0.00 43 1013.9
20260506061328 37 326 3.0 9.0 0.00 0.00 0.00 43 1013.8
20260506060802 38 288 1.0 4.0 0.00 0.00 0.00 43 1013.8
20260506060510 38 204 2.0 8.0 0.00 0.00 0.00 43 1013.8
20260506051255 38 275 3.0 11.0 0.00 0.00 0.00 40 1013.4
20260506050500 38 239 3.0 10.0 0.00 0.00 0.00 41 1013.3
20260506050212 38 298 3.0 10.0 0.00 0.00 0.00 41 1013.3
20260506044856 38 277 2.0 8.0 0.00 0.00 0.00 42 1013.3
20260506044353 38 109 1.0 5.0 0.00 0.00 0.00 42 1013.3
20260506043844 38 84 1.0 5.0 0.00 0.00 0.00 42 1013.3
20260506043326 38 324 1.0 3.0 0.00 0.00 0.00 42 1013.4
20260506042825 38 324 1.0 4.0 0.00 0.00 0.00 42 1013.4
20260506042323 38 322 4.0 11.0 0.00 0.00 0.00 41 1013.5
20260506041823 38 234 4.0 11.0 0.00 0.00 0.00 41 1013.5
20260506041311 38 271 3.0 10.0 0.00 0.00 0.00 41 1013.5
20260506041040 38 355 3.0 10.0 0.00 0.00 0.00 42 1013.5
20260506040240 38 259 3.0 7.0 0.00 0.00 0.00 42 1013.5
20260506040009 38 264 3.0 7.0 0.00 0.00 0.00 42 1013.6
20260506035509 38 302 3.0 7.0 0.00 0.00 0.00 42 1013.5
20260506034740 38 263 3.0 7.0 0.00 0.00 0.00 42 1013.4
20260506034236 38 208 2.0 7.0 0.00 0.00 0.00 42 1013.5
20260506033733 38 250 1.0 4.0 0.00 0.00 0.00 42 1013.4
20260506033210 38 250 3.0 11.0 0.00 0.00 0.00 41 1013.4
20260506032647 38 232 4.0 11.0 0.00 0.00 0.00 41 1013.5
20260506032123 38 303 3.0 8.0 0.00 0.00 0.00 41 1013.5
20260506031827 39 234 3.0 9.0 0.00 0.00 0.00 41 1013.4
20260506031045 39 244 3.0 9.0 0.00 0.00 0.00 40 1013.4
20260506030523 39 252 2.0 8.0 0.00 0.00 0.00 40 1013.4
20260506025954 39 271 3.0 7.0 0.00 0.00 0.00 40 1013.4
20260506025724 39 321 4.0 7.0 0.00 0.00 0.00 39 1013.4
20260506024933 39 340 4.0 11.0 0.00 0.00 0.00 39 1013.2
20260506024710 39 317 3.0 9.0 0.00 0.00 0.00 40 1013.2
20260506024433 39 291 3.0 11.0 0.00 0.00 0.00 39 1013.2
20260506023433 39 337 3.0 9.0 0.00 0.00 0.00 40 1013.1
20260506022931 39 317 4.0 14.0 0.00 0.00 0.00 40 1013.1
20260506022431 39 330 3.0 14.0 0.00 0.00 0.00 40 1013.0
20260506021928 39 277 3.0 10.0 0.00 0.00 0.00 40 1013.1
20260506021423 39 268 4.0 10.0 0.00 0.00 0.00 40 1013.0
20260506021412 39 317 3.0 9.0 0.00 0.00 0.00 39 1013.0
20260506020410 40 286 3.0 9.0 0.00 0.00 0.00 39 1012.9
20260506015911 40 256 4.0 12.0 0.00 0.00 0.00 39 1012.7
20260506015345 40 286 5.0 12.0 0.00 0.00 0.00 39 1012.7
20260506014819 40 269 5.0 11.0 0.00 0.00 0.00 39 1012.6
20260506014252 40 262 5.0 13.0 0.00 0.00 0.00 38 1012.6
20260506013748 40 218 6.0 14.0 0.00 0.00 0.00 38 1012.5
20260506013245 40 270 7.0 14.0 0.00 0.00 0.00 38 1012.4
20260506012743 40 298 5.0 12.0 0.00 0.00 0.00 37 1012.3
20260506012216 40 306 4.0 10.0 0.00 0.00 0.00 37 1012.4
20260506011712 40 340 5.0 12.0 0.00 0.00 0.00 37 1012.4
20260506011155 40 245 4.0 12.0 0.00 0.00 0.00 37 1012.2
20260506010627 40 252 5.0 12.0 0.00 0.00 0.00 37 1012.2
20260506010125 40 234 5.0 12.0 0.00 0.00 0.00 37 1012.0
20260506005622 41 271 5.0 15.0 0.00 0.00 0.00 37 1012.2
20260506005117 41 232 6.0 15.0 0.00 0.00 0.00 37 1012.1
20260506004615 41 291 5.0 12.0 0.00 0.00 0.00 37 1012.1
20260506004112 41 259 4.0 12.0 0.00 0.00 0.00 36 1011.9
20260506003545 41 221 5.0 14.0 0.00 0.00 0.00 36 1011.8
20260506003047 41 315 6.0 14.0 0.00 0.00 0.00 36 1011.8
20260506002546 41 299 7.0 16.0 0.00 0.00 0.00 36 1011.8
20260506002047 41 266 7.0 16.0 0.00 0.00 0.00 36 1011.8
20260506001548 41 249 6.0 14.0 0.00 0.00 0.00 36 1011.5
20260506001045 42 315 6.0 12.0 0.00 0.00 0.00 36 1011.5
20260506000517 42 36 6.0 16.0 0.00 0.00 0.00 35 1011.4
20260506000244 42 318 5.0 16.0 0.00 0.00 0.00 35 1011.4
20260505235512 42 275 5.0 15.0 0.00 0.00 0.00 36 1011.3
20260505235009 42 20 5.0 15.0 0.00 0.00 0.00 35 1011.3
20260505234727 42 348 5.0 13.0 0.00 0.00 0.00 35 1011.2
20260505233959 42 270 5.0 13.0 0.00 0.00 0.00 35 1011.2
20260505233432 42 310 6.0 19.0 0.00 0.00 0.00 35 1011.1
20260505232929 42 336 7.0 19.0 0.00 0.00 0.00 35 1011.1
20260505232905 42 255 6.0 14.0 0.00 0.00 0.00 34 1011.1
20260505231858 43 298 5.0 12.0 0.00 0.00 0.00 34 1011.1
20260505231334 42 339 6.0 18.0 0.00 0.00 0.00 35 1011.0
20260505230805 42 314 7.0 19.0 0.00 0.00 0.00 34 1011.0
20260505230304 42 221 8.0 19.0 0.00 0.00 0.00 34 1011.1
20260505225737 43 251 7.0 18.0 0.00 0.00 0.00 34 1011.1
20260505225211 43 311 8.0 18.0 0.00 0.00 0.00 34 1011.1
20260505224921 43 298 8.0 18.0 0.00 0.00 0.00 34 1011.1
20260505224151 43 306 8.0 18.0 0.00 0.00 0.00 35 1011.0
20260505223649 42 252 8.0 17.0 0.00 0.00 0.00 35 1011.0
20260505223151 43 288 8.0 17.0 0.00 0.00 0.00 34 1011.0
20260505222855 43 251 8.0 17.0 0.00 0.00 0.00 34 1011.0
20260505222120 43 341 9.0 21.0 0.00 0.00 0.00 34 1011.0
20260505221617 44 282 8.0 21.0 0.00 0.00 0.00 33 1010.9
20260505221115 44 319 8.0 20.0 0.00 0.00 0.00 34 1010.8
20260505221051 44 277 9.0 20.0 0.00 0.00 0.00 33 1010.8
20260505220045 44 30 10.0 21.0 0.00 0.00 0.00 33 1010.8
20260505215520 44 313 9.0 20.0 0.00 0.00 0.00 34 1010.8
20260505214951 44 35 9.0 20.0 0.00 0.00 0.00 33 1010.8
20260505214450 44 294 10.0 24.0 0.00 0.00 0.00 34 1010.9
20260505213921 43 271 10.0 24.0 0.00 0.00 0.00 34 1010.9
20260505213420 43 291 9.0 19.0 0.00 0.00 0.00 34 1010.8
20260505212853 43 204 9.0 19.0 0.00 0.00 0.00 34 1010.8
20260505212326 43 306 8.0 22.0 0.00 0.00 0.00 34 1010.8
20260505212054 43 283 8.0 22.0 0.00 0.00 0.00 33 1010.8
20260505211315 43 284 8.0 18.0 0.00 0.00 0.00 34 1010.6
20260505210813 43 300 10.0 26.0 0.00 0.00 0.00 34 1010.6
20260505210246 43 271 11.0 26.0 0.00 0.00 0.00 34 1010.7
20260505210015 43 219 11.0 20.0 0.00 0.00 0.00 33 1010.7
20260505205718 44 171 11.0 24.0 0.00 0.00 0.00 34 1010.6
20260505204714 43 332 12.0 23.0 0.00 0.00 0.00 34 1010.7
20260505204150 43 231 11.0 23.0 0.00 0.00 0.00 35 1010.6
20260505203635 42 283 10.0 26.0 0.00 0.00 0.00 35 1010.7
20260505203631 42 228 11.0 26.0 0.00 0.00 0.00 35 1010.6
20260505202625 42 204 11.0 19.0 0.00 0.00 0.00 35 1010.7
20260505202128 42 279 10.0 19.0 0.00 0.00 0.00 36 1010.9
20260505201611 42 273 9.0 21.0 0.00 0.00 0.00 35 1010.9
20260505201606 42 306 9.0 22.0 0.00 0.00 0.00 36 1010.9
20260505200537 42 190 8.0 18.0 0.00 0.00 0.00 36 1010.8
20260505200016 42 296 9.0 19.0 0.00 0.00 0.00 36 1010.8
20260505195509 42 233 10.0 19.0 0.00 0.00 0.00 36 1010.7
20260505195008 42 274 8.0 17.0 0.00 0.00 0.00 35 1010.8
20260505194721 42 267 8.0 22.0 0.00 0.00 0.00 35 1010.8
20260505193933 42 202 8.0 22.0 0.00 0.00 0.00 36 1010.6
20260505193434 42 209 7.0 16.0 0.00 0.00 0.00 37 1010.7
20260505192930 41 291 9.0 16.0 0.00 0.00 0.00 37 1010.8
20260505192417 41 305 9.0 17.0 0.00 0.00 0.00 37 1010.9
20260505191919 41 248 8.0 17.0 0.00 0.00 0.00 37 1010.7
20260505191901 41 12 7.0 14.0 0.00 0.00 0.00 37 1010.6
20260505190839 41 275 7.0 19.0 0.00 0.00 0.00 36 1010.7
20260505190315 41 290 7.0 19.0 0.00 0.00 0.00 37 1010.9
20260505185804 41 300 10.0 19.0 0.00 0.00 0.00 37 1010.8
20260505185236 41 321 9.0 19.0 0.00 0.00 0.00 36 1010.9
20260505184734 41 217 8.0 16.0 0.00 0.00 0.00 37 1010.8
20260505184234 41 269 7.0 19.0 0.00 0.00 0.00 37 1010.7
20260505183714 41 338 9.0 19.0 0.00 0.00 0.00 37 1010.6
20260505183148 40 290 10.0 19.0 0.00 0.00 0.00 38 1010.6
20260505182623 40 261 7.0 18.0 0.00 0.00 0.00 37 1010.6
20260505182057 40 267 6.0 17.0 0.00 0.00 0.00 38 1010.5
20260505181544 40 301 8.0 17.0 0.00 0.00 0.00 38 1010.5
20260505181042 40 311 8.0 17.0 0.00 0.00 0.00 38 1010.5
20260505180519 40 249 7.0 17.0 0.00 0.00 0.00 39 1010.6
20260505180457 40 289 7.0 17.0 0.00 0.00 0.00 38 1010.5
20260505175427 40 312 7.0 17.0 0.00 0.00 0.00 37 1010.5
20260505174902 40 311 9.0 19.0 0.00 0.00 0.00 38 1010.5
20260505174338 39 275 9.0 19.0 0.00 0.00 0.00 38 1010.4
20260505173812 40 308 7.0 18.0 0.00 0.00 0.00 38 1010.4
20260505173246 39 321 7.0 18.0 0.00 0.00 0.00 39 1010.3
20260505172739 39 265 7.0 18.0 0.00 0.00 0.00 40 1010.5
20260505172235 39 290 9.0 20.0 0.00 0.00 0.00 40 1010.3
20260505171708 39 244 10.0 20.0 0.00 0.00 0.00 39 1010.2
20260505171143 39 319 10.0 18.0 0.00 0.00 0.00 39 1010.4
20260505170848 39 275 9.0 28.0 0.00 0.00 0.00 39 1010.3
20260505170113 39 256 8.0 28.0 0.00 0.00 0.00 39 1010.3
20260505165818 39 303 7.0 18.0 0.00 0.00 0.00 41 1010.2
20260505165021 39 296 7.0 21.0 0.00 0.00 0.00 41 1010.3
20260505164518 38 259 7.0 21.0 0.00 0.00 0.00 42 1010.2
20260505164005 38 248 7.0 20.0 0.00 0.00 0.00 42 1010.4
20260505163508 37 259 10.0 20.0 0.00 0.00 0.00 43 1010.2
20260505163212 37 296 8.0 17.0 0.00 0.00 0.00 43 1010.3
20260505162438 37 313 8.0 21.0 0.00 0.00 0.00 43 1010.4
20260505161910 37 260 9.0 21.0 0.00 0.00 0.00 44 1010.2
20260505161408 36 272 8.0 18.0 0.00 0.00 0.00 44 1010.2
20260505160840 36 308 6.0 18.0 0.00 0.00 0.00 44 1010.2
20260505160608 36 267 5.0 16.0 0.00 0.00 0.00 43 1010.1
20260505153248 36 260 6.0 17.0 0.00 0.00 0.00 44 1010.0
20260505152742 35 331 7.0 17.0 0.00 0.00 0.00 44 1009.9
20260505152237 35 265 6.0 15.0 0.00 0.00 0.00 44 1009.8
20260505151736 35 248 8.0 13.0 0.00 0.00 0.00 44 1009.7
20260505151225 35 279 8.0 18.0 0.00 0.00 0.00 43 1009.7
20260505150727 35 295 8.0 16.0 0.00 0.00 0.00 43 1009.9
20260505150158 35 130 9.0 15.0 0.00 0.00 0.00 44 1009.7
20260505140450 35 332 8.0 22.0 0.00 0.00 0.00 42 1009.0
20260505130210 35 243 7.0 13.0 0.00 0.00 0.00 44 1008.2
20260505124654 35 342 8.0 12.0 0.00 0.00 0.00 44 1008.1
20260505124127 35 311 8.0 16.0 0.00 0.00 0.00 44 1008.0
20260505123625 35 320 8.0 15.0 0.00 0.00 0.00 45 1008.0
20260505123100 35 287 7.0 15.0 0.00 0.00 0.00 45 1007.9
20260505122532 35 255 6.0 19.0 0.00 0.00 0.00 46 1007.8
20260505122029 35 281 4.0 17.0 0.00 0.00 0.00 45 1007.8
20260505121733 35 294 4.0 12.0 0.00 0.00 0.00 47 1007.7
20260505121000 34 13 6.0 15.0 0.00 0.00 0.00 49 1007.4
20260505120436 34 266 6.0 15.0 0.00 0.00 0.00 48 1007.6
20260505115912 34 289 5.0 13.0 0.00 0.00 0.00 49 1007.4
20260505115411 34 292 4.0 13.0 0.00 0.00 0.00 50 1007.4
20260505115142 35 200 3.0 7.0 0.00 0.00 0.00 51 1007.3
20260505114347 35 276 3.0 8.0 0.00 0.00 0.00 51 1007.2
20260505113849 35 181 3.0 11.0 0.00 0.00 0.00 50 1007.1
20260505113330 34 321 3.0 11.0 0.00 0.00 0.00 50 1007.1
20260505113104 34 261 4.0 15.0 0.00 0.00 0.00 50 1007.0
20260505112314 34 258 5.0 15.0 0.00 0.00 0.00 50 1007.0
20260505111813 34 45 5.0 14.0 0.00 0.00 0.00 50 1006.9
20260505111522 34 217 5.0 15.0 0.00 0.00 0.00 50 1006.8
20260505110747 34 246 6.0 15.0 0.00 0.00 0.00 49 1006.8
20260505110502 34 286 6.0 16.0 0.00 0.00 0.00 49 1006.8
20260505101629 34 247 6.0 18.0 0.00 0.00 0.00 52 1006.4
20260505101106 34 5 6.0 19.0 0.00 0.00 0.00 52 1006.3
20260505100838 34 239 5.0 19.0 0.00 0.00 0.00 52 1006.3
20260505100339 34 256 5.0 15.0 0.00 0.00 0.00 53 1006.4
20260505095544 34 355 4.0 15.0 0.00 0.00 0.00 54 1006.3
20260505095020 34 91 4.0 16.0 0.00 0.00 0.00 55 1006.1
20260505094458 34 91 6.0 18.0 0.00 0.00 0.00 55 1006.2